Christchurch, New Zealand

5:53 AM NZDT on March 26, 2017 (GMT +1300)
Christchurch

Weather History for 93780 - July, 2013

Change the Weather History Date:

Tuesday, July 23, 2013

  Actual Average Record
Temperature  
Mean Temperature 50 °F -  
Max Temperature 55 °F 51 °F - ()
Min Temperature 46 °F 34 °F - ()
Degree Days  
Heating Degree Days 14    
Moisture  
Dew Point 46 °F    
Average Humidity 87    
Maximum Humidity 100    
Minimum Humidity 67    
Precipitation  
Precipitation 0.00 in - - ()
Sea Level Pressure  
Sea Level Pressure 29.87 in    
Wind  
Wind Speed 5 mph ()    
Max Wind Speed 9 mph    
Max Gust Speed -    
Visibility 5.1 miles    
Events Fog , Rain    
T = Trace of Precipitation, MM = Missing Value Source: Averaged Metar Reports

Daily Weather History Graph

Daily Weather History Graph

Search for Another Location

Airport or City:

Trip Planner

Search our weather history database for the weather conditions in past years. The results will help you decide how hot, cold, wet, or windy it might be!

Date:

Astronomy

Jul. 23, 2013 Rise Set
Actual Time 7:52 AM NZST 5:20 PM NZST
Civil Twilight 7:21 AM NZST 5:51 PM NZST
Nautical Twilight 6:45 AM NZST 6:26 PM NZST
Astronomical Twilight 6:11 AM NZST 7:01 PM NZST
Moon 6:07 PM NZST (7/23) 7:33 AM NZST (7/23)
Length of Visible Light 10h 30m
Length of Day
9h 28m
Full, 100% of the Moon is Illuminated
Jul 23
Full
Jul 30
Last Quarter
Aug 7
New
Aug 14
First Quarter
Aug 21
Full

Hourly Weather History & Observations

Time (NZST) Temp. Windchill Dew Point Humidity Pressure Visibility Wind Dir Wind Speed Gust Speed Precip Events Conditions
12:00 AM 48.2 °F - 41.0 °F 76% 29.95 in - NNE 6.9 mph - N/A   Clear
1:00 AM 55.4 °F - 44.6 °F 67% 29.95 in - North 6.9 mph - N/A   Clear
2:00 AM 50.0 °F - 41.0 °F 71% 29.92 in - North 4.6 mph - N/A   Clear
3:00 AM 53.6 °F - 46.4 °F 77% 29.92 in - North 6.9 mph - N/A   Clear
4:00 AM 53.6 °F - 46.4 °F 77% 29.92 in - WSW 3.5 mph - N/A   Clear
5:00 AM 53.6 °F - 46.4 °F 77% 29.92 in - NW 2.3 mph - N/A   Clear
6:00 AM 53.6 °F - 46.4 °F 77% 29.92 in - WSW 5.8 mph - N/A   Clear
7:00 AM 51.8 °F - 46.4 °F 82% 29.95 in 6.2 mi WSW 3.5 mph - N/A Rain Rain Showers
8:00 AM 50.0 °F - 46.4 °F 87% 29.95 in - WSW 6.9 mph - N/A   Clear
9:00 AM 48.2 °F - 44.6 °F 87% 29.95 in - SSW 4.6 mph - N/A   Clear
10:00 AM 50.0 °F - 46.4 °F 87% 29.95 in - SSW 5.8 mph - N/A   Clear
11:00 AM 50.0 °F - 46.4 °F 87% 29.95 in - SSW 6.9 mph - N/A   Clear
12:00 PM 51.8 °F - 46.4 °F 82% 29.92 in - SW 6.9 mph - N/A   Clear
1:00 PM 53.6 °F - 46.4 °F 77% 29.89 in - SSW 3.5 mph - N/A   Clear
2:00 PM 53.6 °F - 48.2 °F 82% 29.86 in - WSW 5.8 mph - N/A   Clear
3:00 PM 53.6 °F - 48.2 °F 82% 29.83 in - WSW 3.5 mph - N/A   Clear
4:00 PM 51.8 °F - 48.2 °F 88% 29.83 in 6.2 mi SSW 3.5 mph - N/A   Partly Cloudy
5:00 PM 51.8 °F - 48.2 °F 88% 29.80 in 6.2 mi South 4.6 mph - N/A   Scattered Clouds
6:00 PM 50.0 °F - 48.2 °F 94% 29.80 in 6.2 mi South 4.6 mph - N/A Rain Light Rain
7:00 PM 50.0 °F - 48.2 °F 94% 29.80 in 6.2 mi WSW 6.9 mph - N/A Rain Light Rain
8:00 PM 50.0 °F - 48.2 °F 94% 29.80 in 6.2 mi SW 9.2 mph - N/A Rain Rain
8:40 PM 50.0 °F - 48.2 °F 94% 29.80 in 6.2 mi SSW 9.2 mph - N/A Rain Rain
9:00 PM 48.2 °F - 48.2 °F 100% 29.80 in 6.2 mi SW 9.2 mph - N/A Rain Light Rain
10:00 PM 46.4 °F 45.2 °F 46.4 °F 100% 29.77 in 6.2 mi SSW 3.5 mph - N/A Rain Light Rain
10:10 PM 46.4 °F 44.3 °F 46.4 °F 100% 29.77 in 6.2 mi WSW 4.6 mph - N/A   Overcast
10:15 PM 46.4 °F 44.3 °F 46.4 °F 100% 29.77 in 1.6 mi WSW 4.6 mph - N/A Fog Fog
11:00 PM 46.4 °F 43.5 °F 46.4 °F 100% 29.77 in 0.4 mi West 5.8 mph - N/A Fog Fog
11:10 PM 46.4 °F 45.2 °F 46.4 °F 100% 29.77 in 1.9 mi West 3.5 mph - N/A Fog Scattered Clouds